| time (UTC) | temp F | wind direction | speed knots | gust knots | rain 1hr in | rain 24hr in | rain mn in | humidity % | barometer mb |
| 20260507181012 | 52 | 51 | 5.2 | 12.2 | 0.07 | 0.58 | 0.58 | 92 | 1010.7 |
| 20260507180517 | 52 | 49 | 5.2 | 12.2 | 0.08 | 0.58 | 0.58 | 92 | 1011.0 |
| 20260507180051 | 53 | 42 | 4.3 | 9.6 | 0.09 | 0.58 | 0.58 | 93 | 1011.2 |
| 20260507175514 | 53 | 64 | 5.2 | 10.4 | 0.09 | 0.57 | 0.57 | 93 | 1011.0 |
| 20260507175015 | 53 | 69 | 6.1 | 10.4 | 0.09 | 0.57 | 0.57 | 93 | 1010.8 |
| 20260507174542 | 53 | 67 | 5.2 | 9.6 | 0.11 | 0.57 | 0.57 | 93 | 1011.1 |
| 20260507174010 | 53 | 44 | 5.2 | 9.6 | 0.11 | 0.57 | 0.57 | 93 | 1011.5 |
| 20260507173519 | 53 | 69 | 4.3 | 9.6 | 0.12 | 0.56 | 0.56 | 93 | 1011.5 |
| 20260507173055 | 53 | 63 | 4.3 | 7.8 | 0.13 | 0.56 | 0.56 | 93 | 1011.6 |
| 20260507172514 | 53 | 55 | 4.3 | 10.4 | 0.13 | 0.53 | 0.53 | 92 | 1012.0 |
| 20260507172010 | 53 | 78 | 6.1 | 10.4 | 0.13 | 0.52 | 0.52 | 92 | 1012.5 |
| 20260507171538 | 53 | 55 | 5.2 | 8.7 | 0.14 | 0.52 | 0.52 | 92 | 1012.4 |
| 20260507171014 | 53 | 70 | 4.3 | 7.8 | 0.14 | 0.51 | 0.51 | 92 | 1012.6 |
| 20260507170513 | 53 | 50 | 1.7 | 8.7 | 0.14 | 0.48 | 0.48 | 93 | 1012.1 |
| 20260507170052 | 53 | 71 | 3.5 | 8.7 | 0.14 | 0.48 | 0.48 | 92 | 1012.1 |
| 20260507165514 | 54 | 53 | 3.5 | 9.6 | 0.17 | 0.47 | 0.47 | 92 | 1012.2 |
| 20260507165012 | 54 | 29 | 4.3 | 8.7 | 0.19 | 0.47 | 0.47 | 93 | 1012.1 |
| 20260507164535 | 54 | 53 | 4.3 | 8.7 | 0.19 | 0.45 | 0.45 | 93 | 1011.8 |
| 20260507164012 | 54 | 36 | 5.2 | 10.4 | 0.18 | 0.45 | 0.45 | 92 | 1011.7 |
| 20260507163514 | 54 | 52 | 5.2 | 10.4 | 0.18 | 0.44 | 0.44 | 92 | 1011.7 |
| 20260507163036 | 54 | 46 | 6.1 | 13.0 | 0.17 | 0.42 | 0.42 | 92 | 1011.7 |
| 20260507162512 | 53 | 55 | 6.1 | 13.9 | 0.18 | 0.41 | 0.41 | 92 | 1011.9 |
| 20260507162014 | 54 | 38 | 7.8 | 13.0 | 0.18 | 0.39 | 0.39 | 92 | 1011.6 |
| 20260507161549 | 54 | 38 | 5.2 | 9.6 | 0.19 | 0.38 | 0.38 | 92 | 1011.9 |
| 20260507161015 | 54 | 53 | 5.2 | 10.4 | 0.21 | 0.36 | 0.36 | 92 | 1011.9 |
| 20260507160512 | 54 | 58 | 5.2 | 12.2 | 0.24 | 0.35 | 0.35 | 92 | 1012.2 |
| 20260507160040 | 54 | 39 | 5.2 | 12.2 | 0.25 | 0.32 | 0.32 | 92 | 1012.0 |
| 20260507155513 | 54 | 352 | 4.3 | 11.3 | 0.25 | 0.29 | 0.29 | 92 | 1011.9 |
| 20260507155012 | 54 | 46 | 7.0 | 10.4 | 0.24 | 0.28 | 0.28 | 93 | 1011.8 |
| 20260507154534 | 54 | 33 | 4.3 | 11.3 | 0.24 | 0.26 | 0.26 | 93 | 1011.9 |
| 20260507154017 | 54 | 46 | 7.0 | 12.2 | 0.24 | 0.26 | 0.26 | 92 | 1011.5 |
| 20260507153513 | 53 | 76 | 6.1 | 11.3 | 0.22 | 0.26 | 0.26 | 92 | 1011.0 |
| 20260507153047 | 53 | 67 | 4.3 | 13.0 | 0.21 | 0.24 | 0.24 | 92 | 1011.8 |
| 20260507152511 | 53 | 19 | 7.8 | 13.9 | 0.19 | 0.22 | 0.22 | 91 | 1012.1 |
| 20260507152014 | 53 | 11 | 7.8 | 13.9 | 0.18 | 0.19 | 0.19 | 91 | 1012.1 |
| 20260507151535 | 54 | 19 | 7.8 | 13.0 | 0.16 | 0.18 | 0.18 | 90 | 1012.1 |
| 20260507151018 | 54 | 30 | 5.2 | 12.2 | 0.13 | 0.14 | 0.14 | 90 | 1012.3 |
| 20260507150516 | 54 | 34 | 6.1 | 12.2 | 0.09 | 0.09 | 0.09 | 90 | 1012.4 |
| 20260507150043 | 55 | 40 | 5.2 | 10.4 | 0.04 | 0.06 | 0.06 | 90 | 1012.7 |
| 20260507145515 | 55 | 38 | 3.5 | 13.0 | 0.04 | 0.04 | 0.04 | 90 | 1012.5 |
| 20260507145016 | 55 | 13 | 5.2 | 13.9 | 0.03 | 0.04 | 0.04 | 89 | 1012.4 |
| 20260507144537 | 55 | 77 | 5.2 | 13.9 | 0.02 | 0.03 | 0.03 | 88 | 1012.3 |
| 20260507144014 | 55 | 40 | 7.0 | 13.9 | 0.02 | 0.03 | 0.03 | 89 | 1012.2 |
| 20260507143516 | 56 | 345 | 7.8 | 15.6 | 0.02 | 0.03 | 0.03 | 89 | 1012.1 |
| 20260507143037 | 56 | 57 | 5.2 | 15.6 | 0.02 | 0.03 | 0.03 | 89 | 1011.8 |
| 20260507142516 | 56 | 51 | 7.8 | 14.8 | 0.01 | 0.02 | 0.02 | 88 | 1011.9 |
| 20260507142013 | 56 | 78 | 4.3 | 13.0 | 0.01 | 0.02 | 0.02 | 89 | 1012.0 |
| 20260507141547 | 57 | 70 | 6.1 | 14.8 | 0.01 | 0.02 | 0.02 | 89 | 1011.9 |
| 20260507141014 | 57 | 24 | 6.1 | 19.1 | 0.00 | 0.01 | 0.01 | 90 | 1011.9 |
| 20260507140516 | 57 | 64 | 7.0 | 16.5 | 0.00 | 0.01 | 0.01 | 90 | 1012.0 |
| 20260507140042 | 58 | 56 | 7.8 | 16.5 | 0.00 | 0.01 | 0.01 | 91 | 1011.6 |
| 20260507135514 | 58 | 60 | 4.3 | 12.2 | 0.00 | 0.01 | 0.01 | 92 | 1011.6 |
| 20260507135014 | 58 | 94 | 4.3 | 10.4 | 0.00 | 0.01 | 0.01 | 92 | 1011.9 |
| 20260507134540 | 58 | 331 | 3.5 | 8.7 | 0.00 | 0.01 | 0.01 | 92 | 1011.9 |
| 20260507134014 | 58 | 341 | 3.5 | 10.4 | 0.00 | 0.01 | 0.01 | 92 | 1011.7 |
| 20260507133515 | 58 | 360 | 5.2 | 12.2 | 0.00 | 0.01 | 0.01 | 92 | 1011.6 |
| 20260507133044 | 58 | 47 | 6.1 | 13.0 | 0.00 | 0.01 | 0.01 | 92 | 1011.6 |
| 20260507132515 | 58 | 76 | 5.2 | 13.0 | 0.00 | 0.01 | 0.01 | 92 | 1011.5 |
| 20260507132017 | 58 | 89 | 7.0 | 14.8 | 0.00 | 0.01 | 0.01 | 92 | 1011.5 |
| 20260507131546 | 0 | 21.7 | 0.0 | 0.00 | 0.01 | 0.01 | 1011.5 | ||
| 20260507131014 | 0 | 21.7 | 0.0 | 0.00 | 0.01 | 0.01 | 1011.7 | ||
| 20260507130517 | 0 | 21.7 | 0.0 | 0.00 | 0.01 | 0.01 | 1011.4 | ||
| 20260507130038 | 0 | 21.7 | 0.0 | 0.00 | 0.01 | 0.01 | 1011.5 | ||
| 20260507125514 | 0 | 21.7 | 0.0 | 0.00 | 0.01 | 0.01 | 1011.9 | ||
| 20260507125016 | 0 | 21.7 | 0.0 | 0.00 | 0.01 | 0.01 | 1011.7 | ||
| 20260507124551 | 0 | 21.7 | 0.0 | 0.00 | 0.01 | 0.01 | 1012.0 | ||
| 20260507124014 | 0 | 21.7 | 0.0 | 0.00 | 0.01 | 0.01 | 1011.9 | ||
| 20260507123515 | 0 | 21.7 | 0.0 | 0.00 | 0.01 | 0.01 | 1011.8 | ||
| 20260507123050 | 0 | 21.7 | 0.0 | 0.00 | 0.01 | 0.01 | 1011.8 | ||
| 20260507122518 | 0 | 21.7 | 0.0 | 0.00 | 0.01 | 0.01 | 1011.8 | ||
| 20260507122016 | 0 | 21.7 | 0.0 | 0.00 | 0.01 | 0.01 | 1011.6 | ||
| 20260507121554 | 0 | 21.7 | 0.0 | 0.00 | 0.01 | 0.01 | 1011.7 | ||
| 20260507121015 | 0 | 21.7 | 0.0 | 0.00 | 0.01 | 0.01 | 1011.6 | ||
| 20260507120514 | 0 | 21.7 | 0.0 | 0.00 | 0.01 | 0.01 | 1011.8 | ||
| 20260507120043 | 0 | 21.7 | 0.0 | 0.00 | 0.01 | 0.01 | 1011.6 | ||
| 20260507115517 | 0 | 21.7 | 0.0 | 0.00 | 0.01 | 0.01 | 1012.1 | ||
| 20260507115013 | 0 | 21.7 | 0.0 | 0.00 | 0.01 | 0.01 | 1011.9 | ||
| 20260507114544 | 0 | 21.7 | 0.0 | 0.00 | 0.01 | 0.01 | 1011.6 | ||
| 20260507114014 | 0 | 21.7 | 0.0 | 0.00 | 0.01 | 0.01 | 1011.4 | ||
| 20260507113512 | 0 | 21.7 | 0.0 | 0.00 | 0.01 | 0.01 | 1011.7 | ||
| 20260507113052 | 0 | 21.7 | 0.0 | 0.00 | 0.01 | 0.01 | 1011.2 | ||
| 20260507112518 | 0 | 21.7 | 0.0 | 0.00 | 0.01 | 0.01 | 1011.1 | ||
| 20260507112015 | 0 | 21.7 | 0.0 | 0.00 | 0.01 | 0.01 | 1011.2 | ||
| 20260507111546 | 0 | 21.7 | 0.0 | 0.00 | 0.01 | 0.01 | 1011.2 | ||
| 20260507111015 | 0 | 21.7 | 0.0 | 0.00 | 0.01 | 0.01 | 1011.0 | ||
| 20260507110515 | 0 | 21.7 | 0.0 | 0.00 | 0.01 | 0.01 | 1011.0 | ||
| 20260507110100 | 0 | 21.7 | 0.0 | 0.00 | 0.01 | 0.01 | 1011.1 | ||
| 20260507105514 | 0 | 21.7 | 0.0 | 0.00 | 0.01 | 0.01 | 1011.0 | ||
| 20260507105013 | 0 | 21.7 | 0.0 | 0.00 | 0.01 | 0.01 | 1010.7 | ||
| 20260507104557 | 0 | 21.7 | 0.0 | 0.00 | 0.01 | 0.01 | 1010.9 | ||
| 20260507104014 | 0 | 21.7 | 0.0 | 0.00 | 0.01 | 0.01 | 1010.9 | ||
| 20260507103513 | 0 | 21.7 | 0.0 | 0.00 | 0.01 | 0.01 | 1010.9 | ||
| 20260507103112 | 0 | 21.7 | 0.0 | 0.00 | 0.01 | 0.01 | 1010.8 | ||
| 20260507102516 | 0 | 21.7 | 0.0 | 0.00 | 0.01 | 0.01 | 1010.9 | ||
| 20260507102014 | 0 | 21.7 | 0.0 | 0.00 | 0.01 | 0.01 | 1010.6 | ||
| 20260507101550 | 0 | 21.7 | 0.0 | 0.00 | 0.01 | 0.01 | 1010.8 | ||
| 20260507101014 | 0 | 21.7 | 0.0 | 0.00 | 0.01 | 0.01 | 1010.7 | ||
| 20260507100515 | 0 | 21.7 | 0.0 | 0.00 | 0.01 | 0.01 | 1010.8 | ||
| 20260507100107 | 0 | 21.7 | 0.0 | 0.00 | 0.01 | 0.01 | 1010.8 | ||
| 20260507095516 | 0 | 21.7 | 0.0 | 0.00 | 0.01 | 0.01 | 1010.7 | ||
| 20260507095016 | 0 | 21.7 | 0.0 | 0.00 | 0.01 | 0.01 | 1010.5 | ||
| 20260507094550 | 0 | 21.7 | 0.0 | 0.00 | 0.01 | 0.01 | 1010.1 | ||
| 20260507094014 | 0 | 21.7 | 0.0 | 0.00 | 0.01 | 0.01 | 1009.7 | ||
| 20260507093518 | 0 | 21.7 | 0.0 | 0.00 | 0.01 | 0.01 | 1009.7 | ||
| 20260507093053 | 0 | 21.7 | 0.0 | 0.00 | 0.01 | 0.01 | 1009.7 | ||
| 20260507092514 | 0 | 21.7 | 0.0 | 0.00 | 0.01 | 0.01 | 1009.9 | ||
| 20260507092015 | 0 | 21.7 | 0.0 | 0.00 | 0.01 | 0.01 | 1009.9 | ||
| 20260507091550 | 0 | 21.7 | 0.0 | 0.00 | 0.01 | 0.01 | 1010.0 | ||
| 20260507091016 | 0 | 21.7 | 0.0 | 0.00 | 0.01 | 0.01 | 1010.0 | ||
| 20260507090516 | 0 | 21.7 | 0.0 | 0.00 | 0.01 | 0.01 | 1009.7 | ||
| 20260507090057 | 0 | 21.7 | 0.0 | 0.00 | 0.01 | 0.01 | 1010.1 | ||
| 20260507085515 | 69 | 260 | 21.7 | 13.9 | 0.00 | 0.01 | 0.01 | 83 | 1010.0 |
| 20260507085017 | 69 | 260 | 21.7 | 13.9 | 0.00 | 0.01 | 0.01 | 83 | 1010.0 |
| 20260507084549 | 0 | 205 | 21.7 | 13.9 | 0.00 | 0.01 | 0.01 | 1010.2 | |
| 20260507084014 | 0 | 21.7 | 0.0 | 0.00 | 0.01 | 0.01 | 1010.1 | ||
| 20260507083519 | 0 | 21.7 | 0.0 | 0.00 | 0.01 | 0.01 | 1010.2 | ||
| 20260507083051 | 0 | 21.7 | 0.0 | 0.01 | 0.01 | 0.01 | 1010.3 | ||
| 20260507082516 | 0 | 21.7 | 0.0 | 0.01 | 0.01 | 0.01 | 1010.3 | ||
| 20260507082014 | 0 | 21.7 | 0.0 | 0.01 | 0.01 | 0.01 | 1010.4 | ||
| 20260507081559 | 0 | 21.7 | 0.0 | 0.01 | 0.01 | 0.01 | 1010.4 | ||
| 20260507081019 | 0 | 21.7 | 0.0 | 0.01 | 0.01 | 0.01 | 1010.4 | ||
| 20260507080516 | 69 | 205 | 3.5 | 11.3 | 0.01 | 0.01 | 0.01 | 83 | 1010.4 |
| 20260507080100 | 69 | 205 | 3.5 | 11.3 | 0.01 | 0.01 | 0.01 | 83 | 1010.6 |
| 20260507075516 | 69 | 236 | 3.5 | 11.3 | 0.01 | 0.01 | 0.01 | 1010.7 | |
| 20260507075015 | 68 | 210 | 3.5 | 11.3 | 0.01 | 0.01 | 0.01 | 1010.8 | |
| 20260507074552 | 68 | 198 | 3.5 | 7.0 | 0.01 | 0.01 | 0.01 | 1011.2 | |
| 20260507074016 | 68 | 187 | 2.6 | 6.1 | 0.01 | 0.01 | 0.01 | 83 | 1010.8 |
| 20260507073516 | 68 | 258 | 1.7 | 6.1 | 0.01 | 0.01 | 0.01 | 84 | 1010.9 |
| 20260507073054 | 68 | 209 | 0.9 | 9.6 | 0.00 | 0.00 | 0.00 | 84 | 1010.8 |
| 20260507072516 | 68 | 209 | 2.6 | 9.6 | 0.00 | 0.00 | 0.00 | 84 | 1010.9 |
| 20260507072015 | 68 | 195 | 0.9 | 6.1 | 0.00 | 0.00 | 0.00 | 83 | 1011.0 |
| 20260507071557 | 68 | 194 | 1.7 | 6.1 | 0.00 | 0.00 | 0.00 | 83 | 1010.9 |
| 20260507071014 | 68 | 194 | 2.6 | 5.2 | 0.00 | 0.00 | 0.00 | 83 | 1010.7 |
| 20260507070518 | 68 | 178 | 0.9 | 7.0 | 0.00 | 0.00 | 0.00 | 83 | 1010.8 |
| 20260507070105 | 68 | 173 | 3.5 | 7.0 | 0.00 | 0.00 | 0.00 | 83 | 1010.7 |
| 20260507065515 | 68 | 204 | 1.7 | 7.0 | 0.00 | 0.00 | 0.00 | 83 | 1010.6 |
| 20260507065015 | 68 | 202 | 3.5 | 7.0 | 0.00 | 0.00 | 0.00 | 83 | 1010.5 |
| 20260507064554 | 68 | 162 | 2.6 | 5.2 | 0.00 | 0.00 | 0.00 | 82 | 1010.2 |
| 20260507064014 | 68 | 178 | 2.6 | 7.0 | 0.00 | 0.00 | 0.00 | 82 | 1010.2 |
| 20260507063514 | 68 | 200 | 2.6 | 7.8 | 0.00 | 0.00 | 0.00 | 81 | 1010.3 |
| 20260507063043 | 68 | 165 | 2.6 | 7.8 | 0.00 | 0.00 | 0.00 | 81 | 1010.2 |
| 20260507062515 | 68 | 215 | 3.5 | 7.0 | 0.00 | 0.00 | 0.00 | 81 | 1010.0 |
| 20260507062202 | 68 | 161 | 2.6 | 7.0 | 0.00 | 0.00 | 0.00 | 81 | 1010.4 |
| 20260507061528 | 68 | 198 | 2.6 | 7.0 | 0.00 | 0.00 | 0.00 | 81 | 1010.6 |
| 20260507061012 | 68 | 197 | 3.5 | 7.0 | 0.00 | 0.00 | 0.00 | 80 | 1010.9 |
| 20260507060510 | 69 | 167 | 2.6 | 7.0 | 0.00 | 0.00 | 0.00 | 80 | 1011.2 |
| 20260507060033 | 69 | 198 | 2.6 | 6.1 | 0.00 | 0.00 | 0.00 | 80 | 1011.4 |
| 20260507055512 | 69 | 183 | 3.5 | 6.1 | 0.00 | 0.00 | 0.00 | 80 | 1011.7 |
| 20260507055011 | 69 | 215 | 2.6 | 6.1 | 0.00 | 0.00 | 0.00 | 79 | 1011.6 |
| 20260507054540 | 69 | 211 | 1.7 | 4.3 | 0.00 | 0.00 | 0.00 | 79 | 1011.6 |
| 20260507054014 | 69 | 360 | 0.0 | 6.1 | 0.00 | 0.00 | 0.00 | 78 | 1011.7 |
| 20260507053511 | 69 | 360 | 0.9 | 6.1 | 0.00 | 0.00 | 0.00 | 77 | 1011.6 |
| 20260507053030 | 70 | 202 | 1.7 | 6.1 | 0.00 | 0.00 | 0.00 | 77 | 1011.7 |
| 20260507052513 | 70 | 219 | 2.6 | 6.1 | 0.00 | 0.00 | 0.00 | 76 | 1011.9 |
| 20260507052011 | 70 | 360 | 1.7 | 5.2 | 0.00 | 0.00 | 0.00 | 76 | 1011.9 |
| 20260507051531 | 70 | 196 | 1.7 | 6.1 | 0.00 | 0.00 | 0.00 | 76 | 1011.9 |
| 20260507051012 | 70 | 203 | 2.6 | 7.0 | 0.00 | 0.00 | 0.00 | 75 | 1012.1 |
| 20260507050509 | 71 | 360 | 3.5 | 7.0 | 0.00 | 0.00 | 0.00 | 74 | 1011.9 |
| 20260507050042 | 71 | 187 | 2.6 | 7.0 | 0.00 | 0.00 | 0.00 | 74 | 1011.8 |
| 20260507045512 | 71 | 188 | 1.7 | 7.8 | 0.00 | 0.00 | 0.00 | 72 | 1011.7 |
| 20260507045013 | 71 | 360 | 2.6 | 6.1 | 0.00 | 0.00 | 0.00 | 72 | 1011.6 |
| 20260507044539 | 71 | 200 | 3.5 | 6.1 | 0.00 | 0.00 | 0.00 | 72 | 1011.5 |
| 20260507044012 | 71 | 211 | 2.6 | 6.1 | 0.00 | 0.00 | 0.00 | 72 | 1011.6 |
| 20260507043512 | 71 | 199 | 2.6 | 6.1 | 0.00 | 0.00 | 0.00 | 71 | 1011.5 |
| 20260507043038 | 71 | 227 | 2.6 | 6.1 | 0.00 | 0.00 | 0.00 | 71 | 1011.8 |
| 20260507042512 | 71 | 217 | 3.5 | 7.0 | 0.00 | 0.00 | 0.00 | 71 | 1011.8 |
| 20260507042012 | 71 | 215 | 0.9 | 5.2 | 0.00 | 0.00 | 0.00 | 71 | 1011.9 |
| 20260507041533 | 71 | 219 | 1.7 | 7.0 | 0.00 | 0.00 | 0.00 | 71 | 1011.8 |
| 20260507041012 | 71 | 360 | 3.5 | 7.0 | 0.00 | 0.00 | 0.00 | 71 | 1011.7 |
| 20260507040512 | 71 | 360 | 1.7 | 8.7 | 0.00 | 0.00 | 0.00 | 71 | 1011.7 |
| 20260507040040 | 71 | 360 | 2.6 | 8.7 | 0.00 | 0.00 | 0.00 | 71 | 1011.6 |
| 20260507035513 | 71 | 186 | 2.6 | 5.2 | 0.00 | 0.00 | 0.00 | 72 | 1011.7 |
| 20260507035013 | 71 | 168 | 1.7 | 3.5 | 0.00 | 0.00 | 0.00 | 72 | 1011.5 |
| 20260507034536 | 71 | 218 | 0.9 | 3.5 | 0.00 | 0.00 | 0.00 | 72 | 1011.3 |
| 20260507034011 | 71 | 360 | 1.7 | 5.2 | 0.00 | 0.00 | 0.00 | 72 | 1011.1 |
| 20260507033513 | 71 | 203 | 1.7 | 4.3 | 0.00 | 0.00 | 0.00 | 72 | 1011.1 |
| 20260507033039 | 71 | 360 | 0.0 | 2.6 | 0.00 | 0.00 | 0.00 | 71 | 1011.3 |
| 20260507032513 | 71 | 200 | 0.0 | 2.6 | 0.00 | 0.00 | 0.00 | 71 | 1011.3 |
| 20260507032013 | 72 | 248 | 0.0 | 3.5 | 0.00 | 0.00 | 0.00 | 70 | 1011.3 |
| 20260507031532 | 72 | 195 | 1.7 | 3.5 | 0.00 | 0.00 | 0.00 | 70 | 1011.3 |
| 20260507031011 | 72 | 203 | 0.0 | 2.6 | 0.00 | 0.00 | 0.00 | 69 | 1011.2 |
| 20260507030513 | 72 | 221 | 0.0 | 3.5 | 0.00 | 0.00 | 0.00 | 69 | 1011.5 |
| 20260507030037 | 72 | 217 | 0.0 | 5.2 | 0.00 | 0.00 | 0.00 | 69 | 1011.8 |
| 20260507025512 | 72 | 205 | 1.7 | 5.2 | 0.00 | 0.00 | 0.00 | 69 | 1011.8 |
| 20260507025013 | 72 | 202 | 0.9 | 6.1 | 0.00 | 0.00 | 0.00 | 69 | 1011.8 |
| 20260507024538 | 72 | 179 | 2.6 | 6.1 | 0.00 | 0.00 | 0.00 | 68 | 1011.9 |
| 20260507024012 | 72 | 174 | 2.6 | 7.0 | 0.00 | 0.00 | 0.00 | 68 | 1011.9 |
| 20260507023515 | 72 | 217 | 2.6 | 8.7 | 0.00 | 0.00 | 0.00 | 69 | 1012.0 |
| 20260507023030 | 72 | 196 | 2.6 | 9.6 | 0.00 | 0.00 | 0.00 | 69 | 1011.9 |
| 20260507022512 | 72 | 177 | 1.7 | 7.0 | 0.00 | 0.00 | 0.00 | 69 | 1011.9 |
| 20260507022013 | 72 | 170 | 2.6 | 7.0 | 0.00 | 0.00 | 0.00 | 69 | 1011.9 |
| 20260507021539 | 72 | 185 | 2.6 | 7.0 | 0.00 | 0.00 | 0.00 | 69 | 1011.9 |
| 20260507021013 | 72 | 170 | 1.7 | 7.0 | 0.00 | 0.00 | 0.00 | 69 | 1011.9 |
| 20260507020513 | 72 | 161 | 1.7 | 5.2 | 0.00 | 0.00 | 0.00 | 69 | 1012.1 |
| 20260507020036 | 72 | 207 | 0.9 | 4.3 | 0.00 | 0.00 | 0.00 | 68 | 1011.9 |
| 20260507015512 | 72 | 207 | 0.9 | 2.6 | 0.00 | 0.00 | 0.00 | 68 | 1011.9 |
| 20260507015015 | 72 | 190 | 0.9 | 3.5 | 0.00 | 0.00 | 0.00 | 68 | 1012.0 |
| 20260507014542 | 73 | 162 | 0.9 | 3.5 | 0.00 | 0.00 | 0.00 | 67 | 1012.1 |
| 20260507014011 | 73 | 178 | 0.9 | 3.5 | 0.00 | 0.00 | 0.00 | 67 | 1011.9 |
| 20260507013513 | 73 | 195 | 0.9 | 3.5 | 0.00 | 0.00 | 0.00 | 67 | 1012.0 |
| 20260507013036 | 73 | 219 | 1.7 | 3.5 | 0.00 | 0.00 | 0.00 | 66 | 1011.8 |
| 20260507012513 | 73 | 186 | 0.9 | 3.5 | 0.00 | 0.00 | 0.00 | 66 | 1011.6 |
| 20260507012016 | 73 | 186 | 0.9 | 3.5 | 0.00 | 0.00 | 0.00 | 66 | 1012.0 |
| 20260507011542 | 73 | 180 | 1.7 | 3.5 | 0.00 | 0.00 | 0.00 | 65 | 1011.8 |
| 20260507011014 | 73 | 178 | 0.9 | 4.3 | 0.00 | 0.00 | 0.00 | 65 | 1011.9 |
| 20260507010513 | 73 | 180 | 1.7 | 4.3 | 0.00 | 0.00 | 0.00 | 65 | 1011.9 |
| 20260507010042 | 74 | 181 | 1.7 | 3.5 | 0.00 | 0.00 | 0.00 | 65 | 1012.0 |
| 20260507005513 | 74 | 175 | 0.9 | 3.5 | 0.00 | 0.00 | 0.00 | 64 | 1011.9 |
| 20260507005012 | 74 | 211 | 1.7 | 3.5 | 0.00 | 0.00 | 0.00 | 64 | 1011.8 |
| 20260507004536 | 74 | 189 | 0.9 | 3.5 | 0.00 | 0.00 | 0.00 | 63 | 1011.9 |
| 20260507004014 | 74 | 257 | 0.9 | 2.6 | 0.00 | 0.00 | 0.00 | 63 | 1011.9 |
| 20260507003514 | 74 | 242 | 0.0 | 2.6 | 0.00 | 0.00 | 0.00 | 63 | 1011.6 |
| 20260507003037 | 74 | 210 | 0.0 | 2.6 | 0.00 | 0.00 | 0.00 | 62 | 1011.7 |
| 20260507002514 | 75 | 171 | 0.9 | 3.5 | 0.00 | 0.00 | 0.00 | 62 | 1011.4 |
| 20260507002015 | 75 | 194 | 0.9 | 4.3 | 0.00 | 0.00 | 0.00 | 62 | 1011.4 |
| 20260507001554 | 75 | 227 | 1.7 | 4.3 | 0.00 | 0.00 | 0.00 | 61 | 1011.4 |
| 20260507001014 | 75 | 225 | 0.0 | 4.3 | 0.00 | 0.00 | 0.00 | 61 | 1011.3 |
| 20260507000513 | 75 | 284 | 0.0 | 6.1 | 0.00 | 0.00 | 0.00 | 60 | 1011.3 |
| 20260507000038 | 75 | 198 | 1.7 | 6.1 | 0.00 | 0.00 | 0.00 | 60 | 1011.2 |
| 20260506235514 | 76 | 153 | 0.9 | 5.2 | 0.00 | 0.00 | 0.00 | 60 | 1011.2 |
| 20260506235012 | 76 | 215 | 1.7 | 6.1 | 0.00 | 0.00 | 0.00 | 60 | 1011.3 |
| 20260506234554 | 76 | 203 | 2.6 | 6.1 | 0.00 | 0.00 | 0.00 | 59 | 1011.4 |
| 20260506234015 | 76 | 205 | 0.9 | 5.2 | 0.00 | 0.00 | 0.00 | 59 | 1011.3 |
| 20260506233515 | 76 | 185 | 0.9 | 5.2 | 0.00 | 0.00 | 0.00 | 59 | 1011.1 |
| 20260506233044 | 76 | 183 | 1.7 | 4.3 | 0.00 | 0.00 | 0.00 | 59 | 1011.2 |
| 20260506232512 | 76 | 148 | 0.9 | 7.8 | 0.00 | 0.00 | 0.00 | 58 | 1011.2 |
| 20260506232011 | 77 | 234 | 0.9 | 4.3 | 0.00 | 0.00 | 0.00 | 58 | 1010.9 |
| 20260506231536 | 77 | 256 | 0.9 | 3.5 | 0.00 | 0.00 | 0.00 | 57 | 1010.8 |
| 20260506231015 | 77 | 223 | 0.0 | 7.0 | 0.00 | 0.00 | 0.00 | 57 | 1011.0 |
| 20260506230514 | 77 | 190 | 2.6 | 7.0 | 0.00 | 0.00 | 0.00 | 57 | 1010.9 |
| 20260506230039 | 77 | 225 | 1.7 | 7.0 | 0.00 | 0.00 | 0.00 | 57 | 1010.9 |
| 20260506225513 | 77 | 179 | 1.7 | 7.0 | 0.00 | 0.00 | 0.00 | 56 | 1010.7 |
| 20260506225013 | 77 | 185 | 3.5 | 7.0 | 0.00 | 0.00 | 0.00 | 56 | 1010.8 |
| 20260506224537 | 77 | 205 | 2.6 | 6.1 | 0.00 | 0.00 | 0.00 | 56 | 1010.8 |
| 20260506224012 | 77 | 180 | 1.7 | 7.8 | 0.00 | 0.00 | 0.00 | 56 | 1011.0 |
| 20260506223513 | 77 | 179 | 1.7 | 8.7 | 0.00 | 0.00 | 0.00 | 56 | 1011.0 |
| 20260506223037 | 78 | 221 | 2.6 | 8.7 | 0.00 | 0.00 | 0.00 | 56 | 1011.0 |
| 20260506222513 | 78 | 55 | 0.9 | 8.7 | 0.00 | 0.00 | 0.00 | 56 | 1011.0 |
| 20260506222015 | 78 | 194 | 2.6 | 10.4 | 0.00 | 0.00 | 0.00 | 56 | 1010.9 |
| 20260506221551 | 78 | 180 | 2.6 | 11.3 | 0.00 | 0.00 | 0.00 | 56 | 1011.0 |
| 20260506221013 | 78 | 219 | 3.5 | 11.3 | 0.00 | 0.00 | 0.00 | 56 | 1010.9 |
| 20260506220513 | 78 | 164 | 3.5 | 8.7 | 0.00 | 0.00 | 0.00 | 57 | 1010.8 |
| 20260506220045 | 78 | 159 | 3.5 | 9.6 | 0.00 | 0.00 | 0.00 | 57 | 1010.9 |
| 20260506215514 | 78 | 182 | 4.3 | 13.0 | 0.00 | 0.00 | 0.00 | 57 | 1010.7 |
| 20260506215014 | 78 | 175 | 5.2 | 15.6 | 0.00 | 0.00 | 0.00 | 56 | 1010.5 |
| 20260506214538 | 78 | 186 | 7.0 | 15.6 | 0.00 | 0.00 | 0.00 | 56 | 1010.6 |
| 20260506214013 | 78 | 247 | 5.2 | 12.2 | 0.00 | 0.00 | 0.00 | 56 | 1010.6 |
| 20260506213514 | 78 | 178 | 4.3 | 12.2 | 0.00 | 0.00 | 0.00 | 56 | 1010.7 |
| 20260506213043 | 78 | 171 | 6.1 | 14.8 | 0.00 | 0.00 | 0.00 | 56 | 1010.8 |
| 20260506212513 | 78 | 171 | 5.2 | 10.4 | 0.00 | 0.00 | 0.00 | 56 | 1010.7 |
| 20260506212014 | 78 | 202 | 6.1 | 14.8 | 0.00 | 0.00 | 0.00 | 56 | 1010.7 |
| 20260506211544 | 78 | 217 | 5.2 | 17.4 | 0.00 | 0.00 | 0.00 | 56 | 1010.4 |
| 20260506211013 | 78 | 167 | 6.1 | 20.0 | 0.00 | 0.00 | 0.00 | 57 | 1010.4 |
| 20260506210513 | 78 | 183 | 7.0 | 20.0 | 0.00 | 0.00 | 0.00 | 57 | 1010.4 |
| 20260506210044 | 78 | 188 | 7.8 | 14.8 | 0.00 | 0.00 | 0.00 | 57 | 1010.6 |
| 20260506205512 | 77 | 166 | 7.0 | 13.9 | 0.00 | 0.00 | 0.00 | 57 | 1010.6 |
| 20260506205013 | 78 | 161 | 6.1 | 13.0 | 0.00 | 0.00 | 0.00 | 58 | 1010.8 |
| 20260506204539 | 78 | 182 | 6.1 | 13.0 | 0.00 | 0.00 | 0.00 | 57 | 1010.8 |
| 20260506204011 | 78 | 229 | 5.2 | 13.0 | 0.00 | 0.00 | 0.00 | 56 | 1010.9 |
| 20260506203514 | 78 | 192 | 6.1 | 15.6 | 0.00 | 0.00 | 0.00 | 55 | 1010.9 |
| 20260506203039 | 78 | 182 | 7.8 | 14.8 | 0.00 | 0.00 | 0.00 | 54 | 1011.0 |
| 20260506202515 | 78 | 167 | 9.6 | 17.4 | 0.00 | 0.00 | 0.00 | 54 | 1011.2 |
| 20260506202015 | 78 | 186 | 8.7 | 17.4 | 0.00 | 0.00 | 0.00 | 56 | 1011.3 |
| 20260506201540 | 78 | 180 | 8.7 | 17.4 | 0.00 | 0.00 | 0.00 | 57 | 1011.4 |
| 20260506201014 | 78 | 266 | 3.5 | 13.0 | 0.00 | 0.00 | 0.00 | 59 | 1011.6 |
| 20260506200511 | 78 | 159 | 5.2 | 13.0 | 0.00 | 0.00 | 0.00 | 59 | 1011.6 |
| 20260506200037 | 78 | 203 | 6.1 | 13.0 | 0.00 | 0.00 | 0.00 | 60 | 1011.7 |
| 20260506195514 | 78 | 148 | 7.8 | 13.9 | 0.00 | 0.00 | 0.00 | 61 | 1011.9 |
| 20260506195016 | 77 | 190 | 6.1 | 13.9 | 0.00 | 0.00 | 0.00 | 61 | 1011.9 |
| 20260506194543 | 77 | 180 | 3.5 | 12.2 | 0.00 | 0.00 | 0.00 | 62 | 1012.0 |
| 20260506194015 | 77 | 232 | 4.3 | 12.2 | 0.00 | 0.00 | 0.00 | 61 | 1012.2 |
| 20260506193514 | 77 | 189 | 3.5 | 13.9 | 0.00 | 0.00 | 0.00 | 61 | 1012.3 |
| 20260506193048 | 77 | 193 | 5.2 | 13.0 | 0.00 | 0.00 | 0.00 | 62 | 1012.3 |
| 20260506192517 | 77 | 182 | 7.0 | 13.9 | 0.00 | 0.00 | 0.00 | 62 | 1012.3 |
| 20260506192014 | 77 | 198 | 8.7 | 14.8 | 0.00 | 0.00 | 0.00 | 61 | 1012.5 |
| 20260506191536 | 77 | 202 | 6.1 | 14.8 | 0.00 | 0.00 | 0.00 | 62 | 1012.4 |
| 20260506191014 | 77 | 187 | 5.2 | 13.0 | 0.00 | 0.00 | 0.00 | 62 | 1012.4 |
| 20260506190518 | 76 | 188 | 7.0 | 13.0 | 0.00 | 0.00 | 0.00 | 62 | 1012.4 |
| 20260506190034 | 76 | 187 | 5.2 | 9.6 | 0.00 | 0.00 | 0.00 | 63 | 1012.5 |
| 20260506185514 | 76 | 184 | 4.3 | 13.9 | 0.00 | 0.00 | 0.00 | 63 | 1012.4 |
| 20260506185014 | 76 | 178 | 9.6 | 13.9 | 0.00 | 0.00 | 0.00 | 63 | 1012.3 |
| 20260506184540 | 76 | 223 | 7.0 | 13.9 | 0.00 | 0.00 | 0.00 | 62 | 1012.7 |
| 20260506184013 | 76 | 131 | 7.0 | 20.0 | 0.00 | 0.00 | 0.00 | 62 | 1012.7 |
| 20260506183514 | 76 | 195 | 8.7 | 20.0 | 0.00 | 0.00 | 0.00 | 62 | 1012.4 |
| 20260506183040 | 76 | 223 | 8.7 | 19.1 | 0.00 | 0.00 | 0.00 | 62 | 1012.5 |
| 20260506182515 | 76 | 205 | 10.4 | 20.0 | 0.00 | 0.00 | 0.00 | 63 | 1012.7 |
| 20260506182017 | 76 | 166 | 10.4 | 17.4 | 0.00 | 0.00 | 0.00 | 63 | 1012.9 |
| 20260506181548 | 75 | 167 | 7.8 | 14.8 | 0.00 | 0.00 | 0.00 | 63 | 1012.9 |